Orbital elements:
2019 AR3                                                 Earth MOID = 0.0528 AU
Epoch 2019 Apr. 27.0 TT = JDT 2458600.5                 MPC
M 216.02007              (2000.0)            P               Q
n   1.21981991     Peri.   36.64187     +0.71990477     +0.50415730
a   0.8675055      Node   286.06642     -0.69371918     +0.54459271
e   0.5863295      Incl.   29.76374     +0.02215443     +0.67025682
P   0.81           H   22.5           G   0.15           U   8
Residuals in seconds of arc
190104 703  2.4-  2.2-    190104 104  0.0   0.2+    190105 160  0.2+  0.2-
190104 703  0.9+  0.9+    190104 104  0.1-  0.1+    190105 160  0.1-  0.0
190104 703  0.8+  0.8+    190104 104  0.1-  0.3+    190105 160  0.2-  0.1-
190104 703  0.7-  0.1-    190104 203  0.4+  0.1-    190105 160  0.2-  0.1-
190104 703  0.5+  0.4+    190105 595  0.2-  0.4-    190105 L01  0.1-  0.1-
190104 703  0.5+  0.3+    190105 595  0.2-  0.4-    190105 L01  0.1-  0.1-
190104 703  0.6+  0.4+    190105 595  0.0   0.2-    190105 L01  0.1-  0.1-
190104 703  0.7+  0.3+    190105 595  0.2-  0.4-    190105 L01  0.2-  0.0
190104 734  0.1-  0.1-    190105 I52  0.2+  0.2+    190105 107  0.4-  0.3+
190104 734  0.5-  0.2-    190105 I52  0.1+  0.0     190105 107  0.1-  0.2+
190104 734  0.5-  0.2-    190105 I52  0.0   0.1-    190105 107  0.1-  0.2-
190104 734  0.3-  0.2-    190105 I52  0.2+  0.2+    190106 G40  0.2+  0.1+
190104 F51  0.0   0.1-    190105 P93  0.1-  0.3+    190106 G40  0.0   0.3+
190104 F51  0.2+  0.3+    190105 P93  0.4+  0.1+    190106 G40  0.5-  0.6-
190104 J69  0.3-  0.7-    190105 P93  0.5+  0.1-    190106 H21  0.2+  0.3+
190104 J69  0.4-  0.6-    190105 P93  0.3+  0.1+    190106 H21  0.0   0.4+
190104 J69  0.2-  1.0-    190105 P93  0.4+  0.1-    190106 H21  0.1+  0.4+
190104 K38  0.1+  0.4+    190105 B49  0.1+  0.4+    190106 H21  0.2+  0.1+
190104 K38  0.2-  0.1+    190105 B49  0.1-  0.6+    190106 H21  0.3+  0.4+
190104 K38  0.1+  0.5+    190105 B49  0.2-  0.5+    190106 H21  0.2+  0.2+
190104 K38  0.0   0.2+    190105 C77  0.8-  0.0     190106 587  0.1+  0.3-
190104 K38  0.1+  0.3-    190105 C77  0.0   0.0     190106 587  0.1-  0.5-
190104 203  0.3+  0.0     190105 C77  0.1-  0.5-    190106 587  0.5+  0.4-
190104 203  0.2+  0.1-    190105 160  0.1-  0.3-

Ephemeris:
2019 AR3                 a,e,i = 0.87, 0.59, 30                  q = 0.3589
Date    TT    R. A. (2000) Decl.     Delta      r     Elong.  Phase     V
2018 12 07    16 15 00.5 +13 06 23   0.3255  0.7506    36.8   128.1    25.0
...
2018 12 22    15 35 21.7 +25 30 42   0.1491  0.9184    60.1   111.8    22.5
...
2018 12 30    13 31 17.6 +47 23 01   0.07118 0.9956    97.9    78.0    19.5
...
2019 01 05    07 18 33.8 +39 20 12   0.06764 1.0482   162.9    16.0    17.6
2019 01 06    06 48 46.3 +33 37 35   0.07459 1.0565   168.4    10.8    17.7
2019 01 07    06 27 22.6 +28 40 06   0.08286 1.0647   168.6    10.5    17.9
...
2019 01 13    05 31 46.3 +12 09 40   0.1463  1.1113   148.9    27.2    19.8
...
2019 01 21    05 12 21.7 +04 49 39   0.2438  1.1670   134.2    37.2    21.3
...
2019 02 05    05 08 24.9 +01 01 57   0.4369  1.2524   118.1    44.0    22.9

A. U. Tomatic                (C) Copyright 2019 MPC           M.P.E.C. 2019-A89



More information about the Iaude mailing list